Total_Precipitation_Accumulation
0.13 0.13 0.13 0.17 0.20 0.24 0.30 0.36 0.52 0.66 0.81 0.92 1.05 1.29 1.44 1.53 1.49 1.48 1.55 1.41 1.18 1.17 1.18 1.06 1.13 1.04 0.91 0.87 0.71 0.69 0.64 0.48 0.31 0.45 0.46 0.22 0.09 0.05 0.04 0.03 0.01 0.01 0.01
0.06 0.06 0.07 0.09 0.12 0.15 0.21 0.29 0.42 0.64 0.86 1.07 1.26 1.44 1.73 1.86 1.86 1.92 1.85 1.79 1.64 1.58 1.43 1.38 1.48 1.43 1.42 1.44 1.18 1.10 1.03 0.77 0.50 0.71 0.88 0.54 0.30 0.13 0.05 0.04 0.03 0.03 0.03
0.06 0.06 0.05 0.06 0.07 0.09 0.13 0.20 0.31 0.52 0.81 1.11 1.34 1.52 1.74 1.99 2.08 1.97 1.92 1.96 2.01 2.00 1.85 1.75 1.74 1.64 1.60 1.72 1.68 1.51 1.38 1.21 0.90 0.78 0.89 0.78 0.64 0.41 0.13 0.07 0.07 0.07 0.06
0.10 0.08 0.06 0.05 0.06 0.09 0.12 0.16 0.29 0.43 0.64 0.90 1.19 1.42 1.67 1.96 2.03 1.99 1.98 2.01 2.10 2.15 2.07 1.98 1.95 1.84 1.66 1.67 1.72 1.65 1.63 1.64 1.35 1.08 0.86 0.69 0.67 0.61 0.36 0.16 0.10 0.13 0.12
0.14 0.12 0.10 0.10 0.11 0.14 0.16 0.22 0.35 0.47 0.66 0.89 1.16 1.43 1.62 1.78 1.94 1.94 1.88 1.81 1.83 1.85 1.82 1.89 1.96 1.85 1.72 1.67 1.77 1.81 1.84 1.71 1.58 1.39 1.25 1.09 0.92 0.64 0.58 0.45 0.23 0.15 0.14
0.14 0.17 0.21 0.21 0.21 0.23 0.27 0.34 0.45 0.64 0.79 0.88 1.00 1.12 1.31 1.56 1.67 1.76 1.76 1.76 1.71 1.61 1.57 1.64 1.73 1.76 1.69 1.60 1.58 1.65 1.71 1.71 1.72 1.59 1.40 1.30 1.18 1.07 0.94 0.67 0.45 0.30 0.16
0.25 0.32 0.42 0.39 0.36 0.38 0.46 0.52 0.58 0.65 0.70 0.69 0.75 0.86 1.00 1.16 1.24 1.35 1.53 1.57 1.57 1.50 1.46 1.45 1.53 1.60 1.56 1.58 1.62 1.57 1.53 1.59 1.62 1.59 1.50 1.43 1.24 1.10 1.10 0.91 0.68 0.53 0.28
0.39 0.54 0.65 0.69 0.63 0.60 0.61 0.57 0.57 0.54 0.54 0.56 0.60 0.67 0.72 0.81 0.87 0.92 1.05 1.18 1.17 1.12 1.07 1.10 1.19 1.34 1.41 1.47 1.51 1.50 1.46 1.44 1.41 1.45 1.47 1.47 1.39 1.17 1.05 1.01 0.99 0.83 0.60
0.56 0.73 0.85 0.92 0.86 0.77 0.70 0.63 0.61 0.58 0.52 0.51 0.56 0.61 0.62 0.63 0.64 0.66 0.65 0.69 0.76 0.79 0.77 0.78 0.88 1.01 1.12 1.19 1.24 1.31 1.33 1.32 1.27 1.29 1.30 1.26 1.31 1.24 1.07 0.99 0.98 0.99 0.83
0.79 0.91 0.98 0.96 0.95 0.98 0.89 0.73 0.65 0.65 0.61 0.68 0.66 0.59 0.54 0.51 0.49 0.52 0.57 0.54 0.60 0.67 0.69 0.67 0.70 0.76 0.84 0.93 0.99 1.06 1.12 1.09 1.03 1.03 1.04 1.09 1.17 1.23 1.19 1.13 1.06 1.03 0.94
0.99 1.01 1.08 1.01 0.88 0.87 0.83 0.82 0.76 0.70 0.70 0.76 0.75 0.62 0.56 0.54 0.52 0.48 0.47 0.54 0.61 0.66 0.60 0.60 0.67 0.67 0.70 0.73 0.80 0.92 1.03 0.98 0.94 0.87 0.86 0.95 1.01 1.18 1.24 1.19 1.09 1.04 0.98
0.94 0.98 1.04 0.96 0.80 0.75 0.65 0.70 0.78 0.76 0.81 0.82 0.75 0.65 0.62 0.61 0.65 0.62 0.51 0.51 0.57 0.55 0.55 0.61 0.62 0.60 0.62 0.64 0.73 0.85 0.90 0.91 0.83 0.76 0.72 0.76 0.83 0.97 1.11 1.20 1.11 1.05 0.98
0.73 0.72 0.73 0.80 0.75 0.71 0.63 0.69 0.75 0.79 0.82 0.84 0.82 0.72 0.60 0.61 0.62 0.59 0.51 0.49 0.51 0.50 0.56 0.55 0.59 0.58 0.56 0.61 0.66 0.70 0.71 0.64 0.60 0.60 0.60 0.63 0.68 0.76 0.88 1.01 1.09 1.04 0.97
0.52 0.50 0.46 0.52 0.55 0.57 0.61 0.66 0.76 0.88 0.92 0.90 0.84 0.80 0.73 0.71 0.64 0.52 0.43 0.44 0.44 0.41 0.45 0.50 0.52 0.55 0.53 0.53 0.55 0.56 0.62 0.55 0.47 0.41 0.41 0.45 0.48 0.54 0.66 0.78 0.90 1.00 1.03
0.37 0.35 0.32 0.32 0.34 0.37 0.45 0.52 0.65 0.80 0.91 0.96 0.90 0.83 0.78 0.67 0.56 0.50 0.39 0.35 0.31 0.31 0.35 0.45 0.56 0.61 0.59 0.60 0.59 0.51 0.53 0.54 0.51 0.44 0.38 0.33 0.34 0.39 0.45 0.55 0.74 0.87 0.98
0.27 0.24 0.24 0.21 0.23 0.29 0.36 0.36 0.48 0.62 0.73 0.78 0.79 0.79 0.75 0.60 0.51 0.43 0.34 0.28 0.26 0.26 0.29 0.34 0.44 0.58 0.57 0.67 0.65 0.56 0.51 0.52 0.49 0.46 0.47 0.46 0.41 0.32 0.25 0.25 0.37 0.53 0.71
0.23 0.21 0.20 0.21 0.23 0.30 0.31 0.32 0.41 0.52 0.56 0.60 0.63 0.65 0.60 0.47 0.42 0.33 0.28 0.28 0.26 0.27 0.29 0.34 0.43 0.57 0.70 0.67 0.53 0.57 0.54 0.50 0.48 0.43 0.43 0.46 0.45 0.49 0.42 0.33 0.28 0.29 0.37
0.16 0.21 0.18 0.17 0.19 0.24 0.29 0.37 0.40 0.41 0.41 0.45 0.48 0.47 0.46 0.41 0.34 0.26 0.25 0.26 0.26 0.28 0.30 0.34 0.38 0.43 0.57 0.55 0.46 0.58 0.58 0.58 0.56 0.50 0.48 0.51 0.49 0.48 0.59 0.58 0.50 0.42 0.41
0.07 0.10 0.09 0.09 0.10 0.10 0.11 0.14 0.17 0.19 0.23 0.30 0.36 0.40 0.39 0.36 0.30 0.25 0.31 0.37 0.34 0.32 0.31 0.31 0.33 0.35 0.41 0.45 0.39 0.45 0.55 0.63 0.60 0.52 0.51 0.54 0.53 0.65 0.67 0.58 0.55 0.52 0.49
0.02 0.03 0.03 0.03 0.03 0.02 0.02 0.03 0.05 0.09 0.13 0.19 0.24 0.28 0.31 0.34 0.37 0.45 0.52 0.53 0.49 0.40 0.36 0.34 0.32 0.35 0.36 0.45 0.31 0.36 0.47 0.56 0.64 0.59 0.54 0.71 0.66 0.65 0.54 0.40 0.50 0.57 0.54
0.00 0.00 0.01 0.01 0.00 0.00 0.00 0.00 0.01 0.02 0.02 0.04 0.10 0.18 0.29 0.35 0.44 0.56 0.58 0.56 0.51 0.41 0.36 0.34 0.32 0.32 0.40 0.54 0.44 0.43 0.49 0.55 0.62 0.66 0.66 0.65 0.71 0.52 0.42 0.38 0.45 0.58 0.59
0.00 0.00 0.00 0.00 0.00 0.00 0.00 0.00 0.00 0.00 0.01 0.03 0.07 0.13 0.20 0.29 0.42 0.51 0.50 0.49 0.47 0.44 0.40 0.40 0.37 0.38 0.48 0.54 0.52 0.50 0.52 0.54 0.61 0.63 0.55 0.52 0.55 0.40 0.33 0.29 0.37 0.45 0.44
0.00 0.00 0.00 0.00 0.00 0.00 0.00 0.00 0.00 0.00 0.00 0.01 0.02 0.06 0.11 0.22 0.36 0.39 0.39 0.42 0.44 0.43 0.42 0.40 0.38 0.36 0.41 0.50 0.57 0.49 0.41 0.39 0.45 0.46 0.44 0.39 0.34 0.29 0.25 0.24 0.30 0.31 0.37
0.00 0.00 0.00 0.00 0.00 0.00 0.00 0.00 0.00 0.00 0.00 0.00 0.00 0.01 0.02 0.05 0.10 0.15 0.20 0.26 0.31 0.32 0.32 0.34 0.38 0.41 0.41 0.39 0.42 0.43 0.39 0.33 0.32 0.29 0.21 0.21 0.21 0.24 0.26 0.26 0.26 0.28 0.40
0.00 0.00 0.00 0.00 0.00 0.00 0.00 0.00 0.00 0.00 0.00 0.00 0.00 0.01 0.02 0.03 0.04 0.06 0.09 0.12 0.15 0.19 0.25 0.30 0.33 0.34 0.38 0.37 0.37 0.38 0.38 0.42 0.45 0.44 0.32 0.24 0.22 0.22 0.24 0.26 0.32 0.41 0.48
0.00 0.00 0.00 0.00 0.00 0.00 0.00 0.00 0.00 0.00 0.00 0.00 0.00 0.00 0.01 0.01 0.01 0.02 0.03 0.04 0.06 0.09 0.12 0.15 0.18 0.18 0.24 0.31 0.32 0.33 0.35 0.38 0.42 0.45 0.43 0.41 0.42 0.40 0.36 0.34 0.31 0.35 0.40